Soldotna, AK

8:15 PM AKST on December 14, 2019 (GMT -0900)
Soldotna

Weather History for PASX - October, 2019

Change the Weather History Date:

Sunday, October 27, 2019

  Actual Average Record
Temperature  
Mean Temperature 48 °F -  
Max Temperature 52 °F 35 °F 52 °F (2019)
Min Temperature 44 °F 19 °F -9 °F (1996)
Degree Days  
Heating Degree Days 18    
Moisture  
Dew Point 40 °F    
Average Humidity 79    
Maximum Humidity 93    
Minimum Humidity 61    
Precipitation  
Precipitation 0.73 in - - ()
Sea Level Pressure  
Sea Level Pressure 30.18 in    
Wind  
Wind Speed 9 mph (East)    
Max Wind Speed 14 mph    
Max Gust Speed -    
Visibility 10 miles    
Events Rain    
Averages and records for this station are not official NWS values.
T = Trace of Precipitation, MM = Missing Value Source: NWS Daily Summary

Daily Weather History Graph

Daily Weather History Graph

Search for Another Location

Airport or City:

Astronomy

Oct. 27, 2019 Rise Set
Actual Time 9:15 AM AKDT 6:19 PM AKDT
Civil Twilight 8:30 AM AKDT 7:04 PM AKDT
Nautical Twilight 7:40 AM AKDT 7:53 PM AKDT
Astronomical Twilight 6:52 AM AKDT 8:42 PM AKDT
Moon 8:12 AM AKDT (10/27) 6:50 PM AKDT (10/27)
Length of Visible Light 10h 33m
Length of Day
9h 03m
Waning Crescent, 0% of the Moon is Illuminated
Oct 27
Waning Crescent
Oct 27
New
Nov 4
First Quarter
Nov 12
Full
Nov 19
Last Quarter

Hourly Weather History & Observations

Time (AKDT) Temp. Windchill Dew Point Humidity Pressure Visibility Wind Dir Wind Speed Gust Speed Precip Events Conditions
1:56 AM 46.9 °F - 36.0 °F 66% 30.40 in 10.0 mi East 5.8 mph - 0.00 in   Overcast
5:56 AM 46.0 °F 42.5 °F 37.9 °F 73% 30.35 in 10.0 mi East 6.9 mph - 0.00 in   Overcast
6:56 AM 46.9 °F - 37.9 °F 71% 30.32 in 10.0 mi East 8.1 mph - 0.00 in Rain Light Rain
7:56 AM 48.9 °F - 37.0 °F 64% 30.30 in 10.0 mi ENE 9.2 mph - 0.00 in   Overcast
8:56 AM 48.9 °F - 37.9 °F 66% 30.28 in 10.0 mi East 13.8 mph - 0.00 in Rain Light Rain
9:56 AM 48.9 °F - 37.9 °F 66% 30.25 in 10.0 mi East 8.1 mph - 0.01 in   Overcast
10:56 AM 51.1 °F - 37.9 °F 61% 30.23 in 10.0 mi ENE 6.9 mph - 0.00 in   Overcast
11:56 AM 48.9 °F - 39.9 °F 71% 30.24 in 10.0 mi NE 6.9 mph - 0.00 in Rain Light Rain
12:56 PM 46.0 °F 41.9 °F 42.1 °F 86% 30.19 in 10.0 mi ENE 8.1 mph - 0.10 in Rain Rain
1:56 PM 46.9 °F - 43.0 °F 86% 30.16 in 10.0 mi ENE 5.8 mph - 0.05 in Rain Light Rain
2:56 PM 46.0 °F 41.0 °F 42.1 °F 86% 30.14 in 10.0 mi East 10.4 mph - 0.08 in Rain Rain
3:56 PM 45.0 °F 39.3 °F 42.1 °F 90% 30.13 in 10.0 mi East 11.5 mph - 0.05 in Rain Light Rain
4:56 PM 44.1 °F 39.0 °F 41.0 °F 89% 30.11 in 10.0 mi East 9.2 mph - 0.15 in Rain Light Rain
5:56 PM 44.1 °F 38.6 °F 42.1 °F 93% 30.09 in 10.0 mi East 10.4 mph - 0.04 in Rain Light Rain
6:56 PM 45.0 °F 40.1 °F 42.1 °F 90% 30.08 in 10.0 mi East 9.2 mph - 0.08 in Rain Rain
7:56 PM 45.0 °F 38.5 °F 42.1 °F 90% 30.09 in 10.0 mi East 13.8 mph - 0.08 in Rain Light Rain
8:56 PM 45.0 °F 38.9 °F 41.0 °F 86% 30.06 in 10.0 mi East 12.7 mph - 0.04 in Rain Light Rain
9:56 PM 46.0 °F 41.4 °F 41.0 °F 83% 30.06 in 10.0 mi East 9.2 mph - 0.02 in Rain Light Rain
10:56 PM 46.0 °F 40.6 °F 42.1 °F 86% 30.04 in 10.0 mi East 11.5 mph - 0.03 in Rain Light Rain
11:56 PM 46.0 °F 41.0 °F 41.0 °F 83% 30.03 in 10.0 mi East 10.4 mph - 0.00 in Rain Light Rain